User: anonymous   Login
Location: Stockholm
(59.3293°N, 18.0686°E)
Time: 20:21:42
(UTC+01:00)
Language:

N. Korean satellite - Orbit

View from above orbital plane
View from above orbital plane
View from above satellite
View from above satellite

Ground track
Ground track

The orbit data is extracted from the following two-line orbital elements,

1 39026U 12072A   19047.10785656  .00001206  00000-0  46653-4 0  9998
2 39026  97.2108  54.2615 0038588 174.3867 185.7813 15.27456443342889
Epoch (UTC): 16 February 2019 02:35:18
Eccentricity: 0.0038588
inclination: 97.2108°
perigee height: 457 km
apogee height: 510 km
right ascension of ascending node: 54.2615°
argument of perigee: 174.3867°
revolutions per day: 15.27456443
mean anomaly at epoch: 185.7813°
orbit number at epoch: 34288

The dashed part of the orbit path shows where the satellite is in the earth's shadow,  

DLR